Greenville, SC

4:12 PM EDT on April 23, 2017 (GMT -0400)
Donaldson Center

Weather History for KGYH - February, 2013

Change the Weather History Date:

Friday, February 22, 2013

  Actual Average (KGMU) Record (KGMU)
Temperature  
Mean Temperature 42 °F -  
Max Temperature 46 °F 54 °F 75 °F (2011)
Min Temperature 39 °F 36 °F 24 °F (1999)
Degree Days  
Heating Degree Days 22    
Moisture  
Dew Point 38 °F    
Average Humidity 91    
Maximum Humidity 100    
Minimum Humidity 62    
Precipitation  
Precipitation 0.14 in - - ()
Sea Level Pressure  
Sea Level Pressure 30.18 in    
Wind  
Wind Speed 9 mph (ENE)    
Max Wind Speed 13 mph    
Max Gust Speed 17 mph    
Visibility 6 miles    
Events Rain    
Averages and records for this station are not official NWS values.
T = Trace of Precipitation, MM = Missing Value Source: NWS Daily Summary

Daily Weather History Graph

Daily Weather History Graph

Search for Another Location

Airport or City:

Trip Planner

Search our weather history database for the weather conditions in past years. The results will help you decide how hot, cold, wet, or windy it might be!

Date:

Astronomy

Feb. 22, 2013 Rise Set
Actual Time 7:07 AM EST 6:19 PM EST
Civil Twilight 6:41 AM EST 6:44 PM EST
Nautical Twilight 6:12 AM EST 7:14 PM EST
Astronomical Twilight 5:42 AM EST 7:43 PM EST
Moon 3:34 PM EST (2/22) 4:46 AM EST (2/22)
Length of Visible Light 12h 03m
Length of Day
11h 12m
Waxing Gibbous, 90% of the Moon is Illuminated
Feb 22
Waxing Gibbous
Feb 25
Full
Mar 4
Last Quarter
Mar 11
New
Mar 19
First Quarter

Hourly Weather History & Observations

Time (EST) Temp. Windchill Dew Point Humidity Pressure Visibility Wind Dir Wind Speed Gust Speed Precip Events Conditions
12:15 AM 46.4 °F 40.7 °F 35.6 °F 66% 30.16 in 10.0 mi NE 12.7 mph - N/A   Light Drizzle
12:35 AM 46.4 °F 42.9 °F 33.8 °F 62% 30.19 in 10.0 mi NE 6.9 mph - N/A Rain Rain
12:55 AM 44.6 °F 42.2 °F 35.6 °F 71% 30.25 in 10.0 mi North 4.6 mph - N/A Rain Rain
1:15 AM 44.6 °F 40.2 °F 37.4 °F 76% 30.24 in 10.0 mi NE 8.1 mph - N/A Rain Light Rain
1:35 AM 42.8 °F 38.0 °F 39.2 °F 87% 30.23 in 10.0 mi NNE 8.1 mph 16.1 mph 0.01 in Rain Light Rain
1:55 AM 42.8 °F 37.0 °F 39.2 °F 87% 30.23 in 10.0 mi NE 10.4 mph 17.3 mph 0.02 in Rain Rain
2:15 AM 41.0 °F 33.9 °F 39.2 °F 93% 30.24 in 10.0 mi NE 12.7 mph - 0.01 in Rain Rain
2:35 AM 41.0 °F 35.8 °F 39.2 °F 93% 30.23 in 7.0 mi NE 8.1 mph - 0.05 in Rain Rain
2:55 AM 41.0 °F 34.3 °F 39.2 °F 93% 30.21 in 7.0 mi NE 11.5 mph - 0.08 in Rain Rain
3:15 AM 41.0 °F 34.3 °F 39.2 °F 93% 30.19 in 7.0 mi East 11.5 mph - 0.02 in Rain Light Rain
3:35 AM 41.0 °F 34.7 °F 39.2 °F 93% 30.19 in 10.0 mi ENE 10.4 mph - 0.03 in Rain Light Rain
3:55 AM 41.0 °F 33.9 °F 37.4 °F 87% 30.18 in 10.0 mi ENE 12.7 mph - 0.04 in Rain Rain
4:15 AM 41.0 °F 33.9 °F 37.4 °F 87% 30.19 in 10.0 mi ENE 12.7 mph - N/A   Light Drizzle
4:35 AM 41.0 °F 34.3 °F 37.4 °F 87% 30.21 in 10.0 mi NE 11.5 mph - N/A   Light Drizzle
4:55 AM 41.0 °F 35.2 °F 37.4 °F 87% 30.20 in 10.0 mi ENE 9.2 mph - N/A   Light Drizzle
5:15 AM 39.2 °F 32.0 °F 37.4 °F 93% 30.21 in 10.0 mi ENE 11.5 mph - N/A   Overcast
5:35 AM 39.2 °F 31.6 °F 37.4 °F 93% 30.19 in 10.0 mi East 12.7 mph - N/A Rain Light Rain
7:47 AM 39.2 °F 34.2 °F 37.4 °F 93% 30.22 in 10.0 mi NNE 6.9 mph - N/A Rain Light Rain
8:47 AM 39.2 °F 32.5 °F 37.4 °F 93% 30.23 in 10.0 mi ENE 10.4 mph - N/A   Drizzle
9:47 AM 39.2 °F 35.0 °F 37.4 °F 93% 30.24 in 10.0 mi NE 5.8 mph - N/A   Drizzle
10:09 AM 39.2 °F 33.6 °F 37.4 °F 93% 30.23 in 2.0 mi ENE 8.1 mph - N/A Rain Rain
10:47 AM 39.2 °F 32.5 °F 37.4 °F 93% 30.22 in 2.0 mi NE 10.4 mph - N/A   Drizzle
11:47 AM 39.2 °F 32.0 °F 39.2 °F 100% 30.20 in 3.0 mi ENE 11.5 mph - N/A   Light Drizzle
12:47 PM 39.2 °F 33.0 °F 39.2 °F 100% 30.18 in 2.0 mi NE 9.2 mph - N/A   Overcast
2:47 PM 39.2 °F 32.5 °F 39.2 °F 100% 30.16 in 2.0 mi ENE 10.4 mph - N/A   Drizzle
3:47 PM 41.0 °F 34.3 °F 39.2 °F 93% 30.15 in 2.0 mi ENE 11.5 mph - N/A   Overcast
4:47 PM 39.2 °F 32.5 °F 39.2 °F 100% 30.13 in 2.0 mi NE 10.4 mph - N/A   Overcast
5:47 PM 39.2 °F 33.0 °F 39.2 °F 100% 30.12 in 2.0 mi ENE 9.2 mph - N/A   Overcast
6:47 PM 39.2 °F 32.5 °F 39.2 °F 100% 30.13 in 2.0 mi ENE 10.4 mph - N/A   Overcast
7:47 PM 39.2 °F 33.6 °F 39.2 °F 100% 30.14 in 3.0 mi ENE 8.1 mph - N/A   Overcast
8:15 PM 39.2 °F 34.2 °F 37.4 °F 93% 30.13 in 3.0 mi ENE 6.9 mph - N/A   Overcast
8:35 PM 39.2 °F 34.2 °F 37.4 °F 93% 30.15 in 2.5 mi East 6.9 mph - N/A   Overcast
8:47 PM 39.2 °F 34.2 °F 39.2 °F 100% 30.15 in 2.0 mi ENE 6.9 mph - N/A   Overcast
8:55 PM 39.2 °F 37.0 °F 37.4 °F 93% 30.17 in 4.0 mi NE 3.5 mph - N/A   Overcast
9:15 PM 39.2 °F 33.6 °F 37.4 °F 93% 30.15 in 2.0 mi East 8.1 mph - N/A   Overcast
9:35 PM 39.2 °F 35.0 °F 37.4 °F 93% 30.15 in 2.5 mi ENE 5.8 mph - N/A   Overcast
9:55 PM 39.2 °F 31.6 °F 37.4 °F 93% 30.10 in 2.5 mi ENE 12.7 mph - N/A   Overcast
10:15 PM 39.2 °F 34.2 °F 37.4 °F 93% 30.11 in 5.0 mi East 6.9 mph - N/A Rain Light Rain
10:35 PM 39.2 °F 35.0 °F 37.4 °F 93% 30.12 in 4.0 mi ENE 5.8 mph - N/A   Overcast
10:55 PM 39.2 °F 34.2 °F 37.4 °F 93% 30.10 in 4.0 mi NE 6.9 mph - N/A   Overcast
11:15 PM 39.2 °F 35.0 °F 37.4 °F 93% 30.12 in 4.0 mi NNE 5.8 mph - N/A   Overcast
11:35 PM 39.2 °F - 37.4 °F 93% 30.14 in 2.5 mi Calm Calm - N/A   Overcast
11:55 PM 39.2 °F 37.0 °F 37.4 °F 93% 30.12 in 2.5 mi NE 3.5 mph - N/A Rain Light Rain